Printer-friendly version

IAU Minor Planet Center

Minor Planet Center

MPEC 2008-B52 : 2008 AE

The following Minor Planet Electronic Circular may be linked-to from your own Web pages, but must not otherwise be redistributed electronically.


Read MPEC 2008-B51 Read MPEC 2008-B53


M.P.E.C. 2008-B52                                Issued 2008 Jan. 28, 03:36 UT

     The Minor Planet Electronic Circulars contain information on unusual
         minor planets and routine data on comets.  They are published
   on behalf of Commission 20 of the International Astronomical Union by the
          Minor Planet Center, Smithsonian Astrophysical Observatory,
                          Cambridge, MA 02138, U.S.A.

             Prepared using the Tamkin Foundation Computer Network

                              MPC@CFA.HARVARD.EDU
          URL http://www.cfa.harvard.edu/iau/mpc.html  ISSN 1523-6714

                                    2008 AE

                           Revision to MPEC 2008-A18

Additional Observations:
     K08A00E  C2001 08 22.36170 23 29 04.57 -18 40 36.7          19.2 R EB052608
     K08A00E  C2001 08 22.37351 23 29 03.68 -18 40 58.3          19.1 R EB052608
     K08A00E  C2001 08 22.38414 23 29 02.90 -18 41 18.0          19.6 R EB052608
     K08A00E  C2001 09 21.18587 22 47 16.97 -30 45 09.2          19.2 R EB052644
     K08A00E  C2001 09 21.20750 22 47 15.25 -30 45 26.0          19.4 R EB052644
     K08A00E  C2001 09 21.22850 22 47 13.55 -30 45 42.3          19.7 R EB052644

Observer details:
608 Haleakala-NEAT/MSSS.  Observers R. Bambery, E. Helin, S. Pravdo, M. Hicks,
    K. Lawrence, P. Kervin.  Measurer R. Matson.  1.2-m reflector + CCD.
644 Palomar Mountain/NEAT.  Observers E. F. Helin, S. Pravdo, K. Lawrence,
    K. Kuluhiwa, M. Hicks.  Measurer R. Matson.  1.2-m Schmidt + CCD.

Orbital elements:
2008 AE                                                  Earth MOID = 0.1339 AU
Epoch 2007 Oct. 27.0 TT = JDT 2454400.5                 MPC
M 276.83204              (2000.0)            P               Q
n   0.68348151     Peri.   26.68772     -0.92616401     -0.34661563
a   1.2763943      Node   132.20792     +0.30014530     -0.91604185
e   0.1309141      Incl.   11.57199     +0.22832657     -0.20180418
P   1.44           H   19.6           G   0.15           U   3
Residuals in seconds of arc
010822 608  0.5+  0.5-    080104 198  0.2+  0.2+    080112 704  1.1+  0.1-
010822 608  0.2-  0.2+    080104 198  0.1-  0.3+    080112 704  0.6+  0.1+
010822 608  0.4-  0.5+    080104 198  0.1-  0.3+    080112 704  0.7+  0.2-
010921 644  0.1-  0.4-    080104 198  0.1+  0.1+    080112 704  0.5+  0.4+
010921 644  0.1+  0.0     080104 198  0.2+  0.1+    080115 704  0.1-  0.2-
010921 644  0.0   0.2+    080104 711  0.5-  0.1+    080115 704  0.0   0.0
080101 703  0.3-  0.1-    080104 H45  0.4+  0.5+    080115 704  0.3-  0.4-
080101 703  0.6+  0.6-    080104 H45  0.2-  0.2+    080115 704  0.4+  0.0
080101 703  0.4-  0.7+    080104 H45  0.5-  0.3+    080115 704  0.2+  0.1+
080101 703  0.3-  0.9+    080104 H45  0.2+  0.2-    080118 448  0.2+  0.1-
080101 703 (2.0-  0.3-)   080104 H45  0.4+  0.1+    080118 448  0.3-  0.1+
080101 703  0.6-  0.5-    080104 H45  0.0   0.5-    080118 448  0.1+  0.0
080101 703  0.1-  1.0+    080104 711  0.1+  0.2+    080118 704  0.0   0.2+
080101 703  0.0   0.5-    080104 H45  0.3+  0.1-    080118 704  0.1-  0.2+
080101 595  0.2+  0.3+    080106 J95  0.1+  0.4-    080118 704  0.4+  0.3+
080101 595  0.2+  0.6+    080106 J95  0.0   0.3-    080118 704  0.1+  0.1+
080102 B55  0.4-  1.0+    080106 J95  0.2+  0.1+    080118 704  0.0   0.2+
080102 B55  0.9-  0.6+    080112 703  0.5-  0.0     080118 G72  0.3-  0.8-
080103 H45  0.5+  0.1+    080112 703  0.9-  0.0     080118 G72 (2.0+  3.3+)
080103 H45  0.1+  0.2-    080112 703  0.6-  0.3-    080118 G72 (2.4+ 16.7+)
080103 H45  0.2+  0.3-    080112 H55  0.1-  0.1+    080119 H51 (2.8-  0.0 )
080103 H45  0.5+  0.4-    080112 H55  0.0   0.1+    080119 H51  1.4-  0.9+
080103 H45  0.2-  0.2-    080112 H55  0.0   0.3+    080119 H51 (1.7-  0.3+)
080103 H45  0.5+  0.3-    080112 703  0.2-  0.4-    080120 J51  0.0   0.1-
080103 H45  0.0   0.1+    080112 448  0.2-  0.2-    080120 J51  0.2+  0.0
080103 474  0.2-  0.3-    080112 448  0.2-  0.3-    080120 J51  0.5+  0.0
080103 474  0.2-  0.4-    080112 704  0.5+  0.7+
080103 474  0.5-  0.3-    080112 448  0.3-  0.0

Ephemeris:
2008 AE                  a,e,i = 1.28, 0.13, 12                  q = 1.1093
Date    TT    R. A. (2000) Decl.     Delta      r     Elong.  Phase     V
2008 01 25    11 12.98   +03 05.7    0.184    1.125   136.3    37.2    17.7
2008 02 04    11 46.18   +12 36.3    0.162    1.117   141.5    33.4    17.3
2008 02 14    12 20.52   +24 19.0    0.152    1.111   142.3    32.9    17.1
2008 02 24    12 53.55   +35 38.7    0.155    1.109   137.7    36.9    17.3
2008 03 05    13 21.61   +44 25.2    0.169    1.110   131.2    42.2    17.6
2008 03 15    13 41.55   +50 02.9    0.188    1.114   125.6    46.5    18.0
2008 03 25    13 52.81   +52 55.4    0.209    1.122   121.7    49.2    18.3
2008 04 04    13 56.72   +53 36.8    0.232    1.131   119.2    50.5    18.6
2008 04 14    13 56.15   +52 27.5    0.254    1.144   117.9    50.8    18.8
2008 04 24    13 54.48   +49 44.4    0.275    1.158   117.3    50.5    19.0
2008 05 04    13 53.78   +45 43.0    0.298    1.175   117.2    49.8    19.2
2008 05 14    13 55.43   +40 36.3    0.321    1.193   117.3    48.9    19.3
2008 05 24    13 59.94   +34 42.5    0.348    1.212   117.2    48.1    19.5
2008 06 03    14 07.18   +28 19.2    0.378    1.231   116.7    47.4    19.7
2008 06 13    14 17.04   +21 42.9    0.413    1.251   115.7    47.0    19.9
2008 06 23    14 29.25   +15 10.7    0.454    1.271   114.1    46.9    20.2
2008 07 03    14 43.51   +08 54.9    0.501    1.291   112.0    46.9    20.4
2008 07 13    14 59.71   +03 04.1    0.555    1.310   109.4    47.0    20.7
2008 07 23    15 17.65   -02 15.9    0.615    1.329   106.6    47.1    20.9
2008 08 02    15 37.19   -07 02.6    0.680    1.347   103.4    47.1    21.2
2008 08 12    15 58.28   -11 15.4    0.751    1.363   100.1    47.0    21.4
2008 08 22    16 20.79   -14 54.1    0.826    1.378    96.7    46.8    21.7
2008 09 01    16 44.61   -17 59.7    0.904    1.392    93.2    46.4    21.9
2008 09 11    17 09.67   -20 33.1    0.985    1.405    89.7    45.8    22.0

Gareth V. Williams           (C) Copyright 2008 MPC           M.P.E.C. 2008-B52

Read MPEC 2008-B51 Read MPEC 2008-B53


Our Web policy. Index to the CBAT/MPC/ICQ pages.


Valid HTML 4.01!